Time,TemperatureF,DewpointF,PressureIn,WindDirection,WindDirectionDegrees,WindSpeedMPH,WindSpeedGustMPH,Humidity,HourlyPrecipIn,Conditions,Clouds,dailyrainin,SoftwareType,DateUTC
2013-04-07 00:00:00,48.4,30.6,30.10,SE,125,5.0,9.0,50,0.00,,,0.00,meteohub,2013-04-07 04:00:00,
2013-04-07 00:01:00,48.4,30.6,30.10,ESE,115,0.0,9.0,50,0.00,,,0.00,meteohub,2013-04-07 04:01:00,
2013-04-07 00:06:00,48.2,30.4,30.10,SSE,149,0.0,11.0,50,0.00,,,0.00,meteohub,2013-04-07 04:06:00,
2013-04-07 00:11:00,48.2,30.4,30.10,SE,142,0.0,11.0,50,0.00,,,0.00,meteohub,2013-04-07 04:11:00,
2013-04-07 00:17:00,48.0,30.2,30.10,South,179,1.0,11.0,50,0.00,,,0.00,meteohub,2013-04-07 04:17:00,
2013-04-07 00:22:00,47.8,30.0,30.10,SE,125,0.0,13.0,50,0.00,,,0.00,meteohub,2013-04-07 04:22:00,
2013-04-07 00:27:00,48.0,29.8,30.10,East,89,1.0,13.0,49,0.00,,,0.00,meteohub,2013-04-07 04:27:00,
2013-04-07 00:32:00,48.0,29.8,30.10,North,349,0.0,13.0,49,0.00,,,0.00,meteohub,2013-04-07 04:32:00,
2013-04-07 00:37:00,47.8,29.7,30.10,SE,137,0.0,9.0,49,0.00,,,0.00,meteohub,2013-04-07 04:37:00,
2013-04-07 00:42:00,47.8,29.7,30.10,SE,125,0.0,10.0,49,0.00,,,0.00,meteohub,2013-04-07 04:42:00,
2013-04-07 00:47:00,47.8,30.0,30.10,South,185,1.0,10.0,50,0.00,,,0.00,meteohub,2013-04-07 04:47:00,
2013-04-07 00:52:00,47.8,30.0,30.10,SSE,152,5.0,11.0,50,0.00,,,0.00,meteohub,2013-04-07 04:52:00,
2013-04-07 00:57:00,48.0,30.7,30.10,SE,129,0.0,11.0,51,0.00,,,0.00,meteohub,2013-04-07 04:57:00,
2013-04-07 01:02:00,47.8,30.6,30.10,South,179,0.0,11.0,51,0.00,,,0.00,meteohub,2013-04-07 05:02:00,
2013-04-07 01:07:00,47.8,30.6,30.10,NNW,340,0.0,8.0,51,0.00,,,0.00,meteohub,2013-04-07 05:07:00,
2013-04-07 01:12:00,47.7,30.4,30.10,SE,140,2.0,8.0,51,0.00,,,0.00,meteohub,2013-04-07 05:12:00,
2013-04-07 01:17:00,47.7,30.4,30.10,SSE,154,0.0,7.0,51,0.00,,,0.00,meteohub,2013-04-07 05:17:00,
2013-04-07 01:22:00,47.5,30.2,30.10,NNE,31,0.0,11.0,51,0.00,,,0.00,meteohub,2013-04-07 05:22:00,
2013-04-07 01:27:00,47.3,30.6,30.10,SE,133,0.0,11.0,52,0.00,,,0.00,meteohub,2013-04-07 05:27:00,
2013-04-07 01:32:00,47.3,30.6,30.10,South,181,5.0,11.0,52,0.00,,,0.00,meteohub,2013-04-07 05:32:00,
2013-04-07 01:37:00,47.1,30.4,30.10,ESE,111,0.0,7.0,52,0.00,,,0.00,meteohub,2013-04-07 05:37:00,
2013-04-07 01:42:00,46.9,30.2,30.10,SE,130,0.0,8.0,52,0.00,,,0.00,meteohub,2013-04-07 05:42:00,
2013-04-07 01:47:00,46.9,30.7,30.09,SE,130,0.0,8.0,53,0.00,,,0.00,meteohub,2013-04-07 05:47:00,
2013-04-07 01:52:00,46.8,30.6,30.09,SE,130,0.0,2.0,53,0.00,,,0.00,meteohub,2013-04-07 05:52:00,
2013-04-07 01:57:00,46.6,30.7,30.09,SSE,158,0.0,2.0,54,0.00,,,0.00,meteohub,2013-04-07 05:57:00,
2013-04-07 02:02:00,46.6,31.3,30.09,SE,137,0.0,2.0,55,0.00,,,0.00,meteohub,2013-04-07 06:02:00,
2013-04-07 02:07:00,46.2,30.9,30.09,SE,137,0.0,1.0,55,0.00,,,0.00,meteohub,2013-04-07 06:07:00,
2013-04-07 02:12:00,46.2,30.9,30.09,SE,139,0.0,1.0,55,0.00,,,0.00,meteohub,2013-04-07 06:12:00,
2013-04-07 02:17:00,46.0,30.7,30.09,SE,139,0.0,0.0,55,0.00,,,0.00,meteohub,2013-04-07 06:17:00,
2013-04-07 02:22:00,45.9,31.1,30.09,SE,139,0.0,0.0,56,0.00,,,0.00,meteohub,2013-04-07 06:22:00,
2013-04-07 02:27:00,45.7,31.3,30.09,South,173,0.0,0.0,57,0.00,,,0.00,meteohub,2013-04-07 06:27:00,
2013-04-07 02:32:00,45.7,31.3,30.08,South,172,0.0,0.0,57,0.00,,,0.00,meteohub,2013-04-07 06:32:00,
2013-04-07 02:37:00,45.3,30.9,30.09,ESE,115,0.0,6.0,57,0.00,,,0.00,meteohub,2013-04-07 06:37:00,
2013-04-07 02:42:00,45.1,30.7,30.08,SSE,147,0.0,6.0,57,0.00,,,0.00,meteohub,2013-04-07 06:42:00,
2013-04-07 02:47:00,45.1,31.3,30.08,SE,131,0.0,6.0,58,0.00,,,0.00,meteohub,2013-04-07 06:47:00,
2013-04-07 02:52:00,45.0,31.1,30.08,SE,131,0.0,4.0,58,0.00,,,0.00,meteohub,2013-04-07 06:52:00,
2013-04-07 02:58:00,44.8,31.3,30.08,SE,131,0.0,4.0,59,0.00,,,0.00,meteohub,2013-04-07 06:58:00,
2013-04-07 03:03:00,44.6,31.1,30.07,SE,131,0.0,0.0,59,0.00,,,0.00,meteohub,2013-04-07 07:03:00,
2013-04-07 03:08:00,44.4,31.5,30.07,SE,131,0.0,0.0,60,0.00,,,0.00,meteohub,2013-04-07 07:08:00,
2013-04-07 03:13:00,44.2,31.6,30.07,SE,131,0.0,0.0,61,0.00,,,0.00,meteohub,2013-04-07 07:13:00,
2013-04-07 03:18:00,44.1,31.8,30.07,SE,131,0.0,1.0,62,0.00,,,0.00,meteohub,2013-04-07 07:18:00,
2013-04-07 03:23:00,43.9,31.6,30.07,SE,131,0.0,1.0,62,0.00,,,0.00,meteohub,2013-04-07 07:23:00,
2013-04-07 03:28:00,43.9,32.2,30.06,SSE,162,0.0,1.0,63,0.00,,,0.00,meteohub,2013-04-07 07:28:00,
2013-04-07 03:33:00,43.5,32.2,30.06,SSE,164,0.0,1.0,64,0.00,,,0.00,meteohub,2013-04-07 07:33:00,
2013-04-07 03:38:00,43.5,32.2,30.07,SSE,154,0.0,1.0,64,0.00,,,0.00,meteohub,2013-04-07 07:38:00,
2013-04-07 03:43:00,43.3,32.4,30.06,SSE,154,0.0,2.0,65,0.00,,,0.00,meteohub,2013-04-07 07:43:00,
2013-04-07 03:48:00,43.2,32.5,30.06,SSE,154,0.0,2.0,66,0.00,,,0.00,meteohub,2013-04-07 07:48:00,
2013-04-07 03:53:00,43.0,32.7,30.06,SSE,154,0.0,1.0,67,0.00,,,0.00,meteohub,2013-04-07 07:53:00,
2013-04-07 03:58:00,43.0,33.1,30.06,ESE,115,0.0,5.0,68,0.00,,,0.00,meteohub,2013-04-07 07:58:00,
2013-04-07 04:03:00,42.8,33.3,30.06,East,99,0.0,5.0,69,0.00,,,0.00,meteohub,2013-04-07 08:03:00,
2013-04-07 04:08:00,42.6,33.1,30.06,ESE,111,0.0,5.0,69,0.00,,,0.00,meteohub,2013-04-07 08:08:00,
2013-04-07 04:13:00,42.6,33.1,30.06,ESE,111,0.0,3.0,69,0.00,,,0.00,meteohub,2013-04-07 08:13:00,
2013-04-07 04:18:00,42.4,33.4,30.06,ESE,115,0.0,2.0,70,0.00,,,0.00,meteohub,2013-04-07 08:18:00,
2013-04-07 04:23:00,42.4,33.4,30.06,ESE,120,0.0,0.0,70,0.00,,,0.00,meteohub,2013-04-07 08:23:00,
2013-04-07 04:28:00,42.4,33.4,30.06,North,353,0.0,4.0,70,0.00,,,0.00,meteohub,2013-04-07 08:28:00,
2013-04-07 04:33:00,42.4,33.4,30.06,NE,41,0.0,4.0,70,0.00,,,0.00,meteohub,2013-04-07 08:33:00,
2013-04-07 04:38:00,42.3,33.3,30.06,ENE,75,0.0,4.0,70,0.00,,,0.00,meteohub,2013-04-07 08:38:00,
2013-04-07 04:43:00,42.3,33.3,30.06,ENE,74,0.0,3.0,70,0.00,,,0.00,meteohub,2013-04-07 08:43:00,
2013-04-07 04:48:00,42.3,33.3,30.07,NNW,329,0.0,2.0,70,0.00,,,0.00,meteohub,2013-04-07 08:48:00,
2013-04-07 04:53:00,42.3,32.9,30.07,NW,323,0.0,1.0,69,0.00,,,0.00,meteohub,2013-04-07 08:53:00,
2013-04-07 04:59:00,42.3,32.9,30.06,NW,323,0.0,4.0,69,0.00,,,0.00,meteohub,2013-04-07 08:59:00,
2013-04-07 05:04:00,42.3,32.9,30.06,NW,323,0.0,4.0,69,0.00,,,0.00,meteohub,2013-04-07 09:04:00,
2013-04-07 05:09:00,42.4,32.7,30.06,South,177,1.0,0.0,68,0.00,,,0.00,meteohub,2013-04-07 09:09:00,
2013-04-07 05:14:00,42.4,32.7,30.07,SE,142,0.0,4.0,68,0.00,,,0.00,meteohub,2013-04-07 09:14:00,
2013-04-07 05:19:00,42.6,32.4,30.06,SSE,168,0.0,4.0,67,0.00,,,0.00,meteohub,2013-04-07 09:19:00,
2013-04-07 05:25:00,42.6,32.4,30.06,South,169,0.0,4.0,67,0.00,,,0.00,meteohub,2013-04-07 09:25:00,
2013-04-07 05:30:00,42.4,32.2,30.06,South,169,0.0,2.0,67,0.00,,,0.00,meteohub,2013-04-07 09:30:00,
2013-04-07 05:35:00,42.4,32.2,30.07,South,169,0.0,1.0,67,0.00,,,0.00,meteohub,2013-04-07 09:35:00,
2013-04-07 05:40:00,42.4,32.2,30.07,South,169,0.0,0.0,67,0.00,,,0.00,meteohub,2013-04-07 09:40:00,
2013-04-07 05:45:00,42.4,32.2,30.07,South,169,0.0,0.0,67,0.00,,,0.00,meteohub,2013-04-07 09:45:00,
2013-04-07 05:50:00,42.4,32.2,30.07,SSE,155,0.0,0.0,67,0.00,,,0.00,meteohub,2013-04-07 09:50:00,
2013-04-07 05:55:00,42.6,32.0,30.07,SE,139,0.0,1.0,66,0.00,,,0.00,meteohub,2013-04-07 09:55:00,
2013-04-07 06:00:00,42.8,32.2,30.07,NW,304,0.0,1.0,66,0.00,,,0.00,meteohub,2013-04-07 10:00:00,
2013-04-07 06:05:00,42.6,32.0,30.07,SSE,156,0.0,2.0,66,0.00,,,0.00,meteohub,2013-04-07 10:05:00,
2013-04-07 06:10:00,42.6,31.6,30.07,SSE,156,0.0,2.0,65,0.00,,,0.00,meteohub,2013-04-07 10:10:00,
2013-04-07 06:15:00,42.6,31.6,30.07,SSE,156,0.0,2.0,65,0.00,,,0.00,meteohub,2013-04-07 10:15:00,
2013-04-07 06:21:00,42.4,31.5,30.07,SSE,156,0.0,0.0,65,0.00,,,0.00,meteohub,2013-04-07 10:21:00,
2013-04-07 06:26:00,42.4,31.8,30.07,SSE,156,0.0,0.0,66,0.00,,,0.00,meteohub,2013-04-07 10:26:00,
2013-04-07 06:31:00,42.4,31.5,30.07,SSE,156,0.0,0.0,65,0.00,,,0.00,meteohub,2013-04-07 10:31:00,
2013-04-07 06:36:00,42.4,31.8,30.07,SSE,156,0.0,0.0,66,0.00,,,0.00,meteohub,2013-04-07 10:36:00,
2013-04-07 06:41:00,42.4,31.8,30.07,SSE,156,0.0,0.0,66,0.00,,,0.00,meteohub,2013-04-07 10:41:00,
2013-04-07 06:47:00,42.6,32.4,30.08,SSE,156,0.0,4.0,67,0.00,,,0.00,meteohub,2013-04-07 10:47:00,
2013-04-07 06:52:00,42.6,32.0,30.08,SSE,156,0.0,4.0,66,0.00,,,0.00,meteohub,2013-04-07 10:52:00,
2013-04-07 06:57:00,42.6,32.4,30.08,SSE,156,0.0,0.0,67,0.00,,,0.00,meteohub,2013-04-07 10:57:00,
2013-04-07 07:02:00,42.6,32.4,30.08,SSE,156,0.0,0.0,67,0.00,,,0.00,meteohub,2013-04-07 11:02:00,
2013-04-07 07:07:00,42.8,32.5,30.09,SSE,156,0.0,0.0,67,0.00,,,0.00,meteohub,2013-04-07 11:07:00,
2013-04-07 07:12:00,42.6,32.4,30.09,SE,142,0.0,0.0,67,0.00,,,0.00,meteohub,2013-04-07 11:12:00,
2013-04-07 07:17:00,42.6,32.4,30.09,ESE,115,0.0,0.0,67,0.00,,,0.00,meteohub,2013-04-07 11:17:00,
2013-04-07 07:22:00,42.6,32.0,30.09,WNW,298,0.0,1.0,66,0.00,,,0.00,meteohub,2013-04-07 11:22:00,
2013-04-07 07:27:00,42.6,31.6,30.08,NNW,345,0.0,1.0,65,0.00,,,0.00,meteohub,2013-04-07 11:27:00,
2013-04-07 07:32:00,42.6,31.6,30.08,NNW,345,0.0,1.0,65,0.00,,,0.00,meteohub,2013-04-07 11:32:00,
2013-04-07 07:37:00,42.4,31.5,30.08,NE,50,0.0,3.0,65,0.00,,,0.00,meteohub,2013-04-07 11:37:00,
2013-04-07 07:42:00,42.3,30.9,30.08,NE,54,0.0,3.0,64,0.00,,,0.00,meteohub,2013-04-07 11:42:00,
2013-04-07 07:47:00,42.3,30.6,30.09,NE,52,0.0,4.0,63,0.00,,,0.00,meteohub,2013-04-07 11:47:00,
2013-04-07 07:52:00,42.3,30.2,30.09,ENE,66,0.0,4.0,62,0.00,,,0.00,meteohub,2013-04-07 11:52:00,
2013-04-07 07:57:00,42.4,30.0,30.09,SE,135,0.0,1.0,61,0.00,,,0.00,meteohub,2013-04-07 11:57:00,
2013-04-07 08:02:00,42.8,30.2,30.09,ENE,67,0.0,1.0,61,0.00,,,0.00,meteohub,2013-04-07 12:02:00,
2013-04-07 08:07:00,43.2,29.8,30.09,NNW,327,2.0,3.0,59,0.00,,,0.00,meteohub,2013-04-07 12:07:00,
2013-04-07 08:12:00,43.3,29.5,30.10,NE,52,0.0,3.0,58,0.00,,,0.00,meteohub,2013-04-07 12:12:00,
2013-04-07 08:17:00,43.5,28.9,30.10,ESE,115,0.0,5.0,56,0.00,,,0.00,meteohub,2013-04-07 12:17:00,
2013-04-07 08:22:00,43.7,28.2,30.09,ESE,120,0.0,5.0,54,0.00,,,0.00,meteohub,2013-04-07 12:22:00,
2013-04-07 08:28:00,43.9,27.9,30.10,SE,125,0.0,5.0,53,0.00,,,0.00,meteohub,2013-04-07 12:28:00,
2013-04-07 08:33:00,44.1,28.0,30.10,NNE,16,0.0,4.0,53,0.00,,,0.00,meteohub,2013-04-07 12:33:00,
2013-04-07 08:38:00,44.4,28.8,30.10,SE,132,0.0,4.0,54,0.00,,,0.00,meteohub,2013-04-07 12:38:00,
2013-04-07 08:43:00,44.8,30.0,30.10,East,98,0.0,4.0,56,0.00,,,0.00,meteohub,2013-04-07 12:43:00,
2013-04-07 08:48:00,45.1,30.7,30.10,NE,50,0.0,3.0,57,0.00,,,0.00,meteohub,2013-04-07 12:48:00,
2013-04-07 08:53:00,45.3,31.5,30.11,SE,131,0.0,2.0,58,0.00,,,0.00,meteohub,2013-04-07 12:53:00,
2013-04-07 08:58:00,45.7,31.8,30.11,SSE,149,0.0,7.0,58,0.00,,,0.00,meteohub,2013-04-07 12:58:00,
2013-04-07 09:03:00,45.9,33.3,30.11,ESE,115,0.0,7.0,61,0.00,,,0.00,meteohub,2013-04-07 13:03:00,
2013-04-07 09:08:00,46.0,33.3,30.11,NW,312,0.0,7.0,61,0.00,,,0.00,meteohub,2013-04-07 13:08:00,
2013-04-07 09:13:00,46.4,34.5,30.11,North,358,0.0,2.0,63,0.00,,,0.00,meteohub,2013-04-07 13:13:00,
2013-04-07 09:18:00,46.9,34.5,30.11,ESE,111,0.0,2.0,62,0.00,,,0.00,meteohub,2013-04-07 13:18:00,
2013-04-07 09:23:00,47.1,35.6,30.11,SSE,154,2.0,6.0,64,0.00,,,0.00,meteohub,2013-04-07 13:23:00,
2013-04-07 09:29:00,47.5,36.0,30.11,SSE,148,0.0,8.0,64,0.00,,,0.00,meteohub,2013-04-07 13:29:00,
2013-04-07 09:34:00,47.8,36.7,30.11,NW,324,0.0,8.0,65,0.00,,,0.00,meteohub,2013-04-07 13:34:00,
2013-04-07 09:39:00,48.2,37.0,30.11,SSE,147,0.0,8.0,65,0.00,,,0.00,meteohub,2013-04-07 13:39:00,
2013-04-07 09:44:00,48.4,37.2,30.11,North,353,0.0,8.0,65,0.00,,,0.00,meteohub,2013-04-07 13:44:00,
2013-04-07 09:49:00,48.6,37.4,30.11,SE,138,0.0,7.0,65,0.00,,,0.00,meteohub,2013-04-07 13:49:00,
2013-04-07 09:55:00,48.9,37.2,30.11,ESE,106,0.0,7.0,64,0.00,,,0.00,meteohub,2013-04-07 13:55:00,
2013-04-07 10:00:00,49.3,37.2,30.11,WNW,287,0.0,7.0,63,0.00,,,0.00,meteohub,2013-04-07 14:00:00,
2013-04-07 10:05:00,49.5,37.8,30.11,NE,52,0.0,6.0,64,0.00,,,0.00,meteohub,2013-04-07 14:05:00,
2013-04-07 10:10:00,49.8,38.1,30.10,ESE,120,0.0,6.0,64,0.00,,,0.00,meteohub,2013-04-07 14:10:00,
2013-04-07 10:15:00,50.2,38.1,30.11,SE,135,0.0,3.0,63,0.00,,,0.00,meteohub,2013-04-07 14:15:00,
2013-04-07 10:20:00,50.2,37.6,30.11,SE,125,2.0,8.0,62,0.00,,,0.00,meteohub,2013-04-07 14:20:00,
2013-04-07 10:25:00,50.5,38.5,30.11,NNW,348,0.0,8.0,63,0.00,,,0.00,meteohub,2013-04-07 14:25:00,
2013-04-07 10:30:00,51.3,39.0,30.11,North,355,0.0,5.0,63,0.00,,,0.00,meteohub,2013-04-07 14:30:00,
2013-04-07 10:36:00,51.3,38.3,30.11,SE,146,0.0,4.0,61,0.00,,,0.00,meteohub,2013-04-07 14:36:00,
2013-04-07 10:41:00,51.3,38.3,30.11,North,351,0.0,5.0,61,0.00,,,0.00,meteohub,2013-04-07 14:41:00,
2013-04-07 10:46:00,51.3,38.7,30.11,SE,125,0.0,5.0,62,0.00,,,0.00,meteohub,2013-04-07 14:46:00,
2013-04-07 10:52:00,51.6,39.4,30.11,ESE,115,0.0,5.0,63,0.00,,,0.00,meteohub,2013-04-07 14:52:00,
2013-04-07 10:57:00,52.2,38.7,30.11,ENE,78,0.0,9.0,60,0.00,,,0.00,meteohub,2013-04-07 14:57:00,
2013-04-07 11:02:00,52.3,39.4,30.11,SE,143,3.0,9.0,61,0.00,,,0.00,meteohub,2013-04-07 15:02:00,
2013-04-07 11:07:00,52.9,40.3,30.11,ESE,115,0.0,9.0,62,0.00,,,0.00,meteohub,2013-04-07 15:07:00,
2013-04-07 11:12:00,53.1,40.5,30.11,WNW,289,0.0,9.0,62,0.00,,,0.00,meteohub,2013-04-07 15:12:00,
2013-04-07 11:17:00,53.4,39.9,30.11,NW,318,0.0,8.0,60,0.00,,,0.00,meteohub,2013-04-07 15:17:00,
2013-04-07 11:22:00,53.6,39.6,30.11,ESE,115,0.0,7.0,59,0.00,,,0.00,meteohub,2013-04-07 15:22:00,
2013-04-07 11:27:00,53.1,39.6,30.11,North,353,0.0,7.0,60,0.00,,,0.00,meteohub,2013-04-07 15:27:00,
2013-04-07 11:32:00,52.9,39.7,30.11,SE,125,0.0,7.0,61,0.00,,,0.00,meteohub,2013-04-07 15:32:00,
2013-04-07 11:37:00,52.9,39.7,30.11,SE,125,0.0,6.0,61,0.00,,,0.00,meteohub,2013-04-07 15:37:00,
2013-04-07 11:42:00,52.9,39.7,30.11,SE,125,0.0,5.0,61,0.00,,,0.00,meteohub,2013-04-07 15:42:00,
2013-04-07 11:47:00,53.2,41.0,30.11,SE,133,0.0,3.0,63,0.00,,,0.00,meteohub,2013-04-07 15:47:00,
2013-04-07 11:52:00,54.1,41.0,30.11,SSE,166,0.0,13.0,61,0.00,,,0.00,meteohub,2013-04-07 15:52:00,
2013-04-07 11:57:00,55.0,41.9,30.11,South,173,0.0,13.0,61,0.00,,,0.00,meteohub,2013-04-07 15:57:00,
2013-04-07 12:02:00,55.4,41.4,30.11,NNW,341,0.0,5.0,59,0.00,,,0.00,meteohub,2013-04-07 16:02:00,
2013-04-07 12:07:00,55.2,41.2,30.11,NNW,340,0.0,13.0,59,0.00,,,0.00,meteohub,2013-04-07 16:07:00,
2013-04-07 12:12:00,54.7,40.3,30.11,NNW,331,0.0,13.0,58,0.00,,,0.00,meteohub,2013-04-07 16:12:00,
2013-04-07 12:17:00,54.3,40.8,30.11,NW,316,4.0,12.0,60,0.00,,,0.00,meteohub,2013-04-07 16:17:00,
2013-04-07 12:23:00,54.3,41.2,30.10,NNW,342,0.0,12.0,61,0.00,,,0.00,meteohub,2013-04-07 16:23:00,
2013-04-07 12:28:00,54.7,41.9,30.11,SE,129,4.0,12.0,62,0.00,,,0.00,meteohub,2013-04-07 16:28:00,
2013-04-07 12:33:00,54.1,41.9,30.11,SE,125,0.0,10.0,63,0.00,,,0.00,meteohub,2013-04-07 16:33:00,
2013-04-07 12:38:00,54.0,42.1,30.11,SE,129,0.0,10.0,64,0.00,,,0.00,meteohub,2013-04-07 16:38:00,
2013-04-07 12:43:00,54.3,42.4,30.10,South,177,8.0,11.0,64,0.00,,,0.00,meteohub,2013-04-07 16:43:00,
2013-04-07 12:48:00,54.7,43.2,30.10,SSE,155,0.0,14.0,65,0.00,,,0.00,meteohub,2013-04-07 16:48:00,
2013-04-07 12:53:00,55.2,41.5,30.10,SE,129,0.0,14.0,60,0.00,,,0.00,meteohub,2013-04-07 16:53:00,
2013-04-07 12:58:00,55.0,42.3,30.09,SSE,160,0.0,14.0,62,0.00,,,0.00,meteohub,2013-04-07 16:58:00,
2013-04-07 13:03:00,55.0,41.9,30.09,SSE,153,5.0,7.0,61,0.00,,,0.00,meteohub,2013-04-07 17:03:00,
2013-04-07 13:08:00,54.9,41.7,30.09,South,173,5.0,7.0,61,0.00,,,0.00,meteohub,2013-04-07 17:08:00,
2013-04-07 13:13:00,55.6,41.9,30.09,South,177,4.0,8.0,60,0.00,,,0.00,meteohub,2013-04-07 17:13:00,
2013-04-07 13:18:00,56.1,42.4,30.09,ESE,115,0.0,14.0,60,0.00,,,0.00,meteohub,2013-04-07 17:18:00,
2013-04-07 13:23:00,57.0,42.4,30.08,NNW,335,0.0,14.0,58,0.00,,,0.00,meteohub,2013-04-07 17:23:00,
2013-04-07 13:28:00,56.8,41.4,30.08,SE,125,0.0,14.0,56,0.00,,,0.00,meteohub,2013-04-07 17:28:00,
2013-04-07 13:33:00,57.4,41.4,30.08,NE,44,0.0,11.0,55,0.00,,,0.00,meteohub,2013-04-07 17:33:00,
2013-04-07 13:38:00,57.6,41.5,30.08,NNW,336,0.0,11.0,55,0.00,,,0.00,meteohub,2013-04-07 17:38:00,
2013-04-07 13:43:00,57.6,41.5,30.07,ESE,110,2.0,11.0,55,0.00,,,0.00,meteohub,2013-04-07 17:43:00,
2013-04-07 13:48:00,57.4,40.8,30.07,East,84,0.0,6.0,54,0.00,,,0.00,meteohub,2013-04-07 17:48:00,
2013-04-07 13:53:00,57.6,43.0,30.07,ENE,64,0.0,11.0,58,0.00,,,0.00,meteohub,2013-04-07 17:53:00,
2013-04-07 13:59:00,57.6,41.0,30.06,SE,129,0.0,11.0,54,0.00,,,0.00,meteohub,2013-04-07 17:59:00,
2013-04-07 14:04:00,57.2,41.2,30.06,ESE,104,7.0,11.0,55,0.00,,,0.00,meteohub,2013-04-07 18:04:00,
2013-04-07 14:09:00,56.8,41.7,30.06,East,95,0.0,13.0,57,0.00,,,0.00,meteohub,2013-04-07 18:09:00,
2013-04-07 14:14:00,57.7,42.1,30.06,NNW,347,0.0,13.0,56,0.00,,,0.00,meteohub,2013-04-07 18:14:00,
2013-04-07 14:19:00,57.9,41.4,30.06,ESE,115,2.0,13.0,54,0.00,,,0.00,meteohub,2013-04-07 18:19:00,
2013-04-07 14:24:00,58.3,43.5,30.05,East,93,0.0,11.0,58,0.00,,,0.00,meteohub,2013-04-07 18:24:00,
2013-04-07 14:29:00,58.5,42.4,30.05,ESE,107,2.0,11.0,55,0.00,,,0.00,meteohub,2013-04-07 18:29:00,
2013-04-07 14:35:00,58.3,42.6,30.05,South,178,0.0,13.0,56,0.00,,,0.00,meteohub,2013-04-07 18:35:00,
2013-04-07 14:40:00,59.0,41.9,30.05,SE,145,0.0,13.0,53,0.00,,,0.00,meteohub,2013-04-07 18:40:00,
2013-04-07 14:45:00,59.5,41.4,30.05,NNW,339,1.0,13.0,51,0.00,,,0.00,meteohub,2013-04-07 18:45:00,
2013-04-07 14:50:00,59.7,40.5,30.05,NNW,345,0.0,14.0,49,0.00,,,0.00,meteohub,2013-04-07 18:50:00,
2013-04-07 14:55:00,59.2,43.0,30.05,NNW,330,0.0,14.0,55,0.00,,,0.00,meteohub,2013-04-07 18:55:00,
2013-04-07 15:00:00,58.8,42.6,30.05,NNW,345,0.0,14.0,55,0.00,,,0.00,meteohub,2013-04-07 19:00:00,
2013-04-07 15:05:00,58.3,41.2,30.05,SSE,149,0.0,11.0,53,0.00,,,0.00,meteohub,2013-04-07 19:05:00,
2013-04-07 15:10:00,57.4,41.4,30.05,South,172,1.0,11.0,55,0.00,,,0.00,meteohub,2013-04-07 19:10:00,
2013-04-07 15:15:00,57.9,42.8,30.05,SE,146,0.0,10.0,57,0.00,,,0.00,meteohub,2013-04-07 19:15:00,
2013-04-07 15:20:00,58.1,42.1,30.05,East,83,0.0,10.0,55,0.00,,,0.00,meteohub,2013-04-07 19:20:00,
2013-04-07 15:25:00,58.5,42.8,30.05,South,169,0.0,8.0,56,0.00,,,0.00,meteohub,2013-04-07 19:25:00,
2013-04-07 15:31:00,58.3,41.7,30.05,ESE,104,1.0,7.0,54,0.00,,,0.00,meteohub,2013-04-07 19:31:00,
2013-04-07 15:36:00,58.1,41.5,30.05,SE,139,0.0,8.0,54,0.00,,,0.00,meteohub,2013-04-07 19:36:00,
2013-04-07 15:41:00,57.7,41.2,30.04,SE,144,4.0,8.0,54,0.00,,,0.00,meteohub,2013-04-07 19:41:00,
2013-04-07 15:47:00,57.2,42.1,30.04,North,353,0.0,8.0,57,0.00,,,0.00,meteohub,2013-04-07 19:47:00,
2013-04-07 15:52:00,57.6,43.0,30.04,SE,135,0.0,6.0,58,0.00,,,0.00,meteohub,2013-04-07 19:52:00,
2013-04-07 15:57:00,57.7,42.1,30.04,East,92,0.0,5.0,56,0.00,,,0.00,meteohub,2013-04-07 19:57:00,
2013-04-07 16:02:00,57.7,43.0,30.04,NNW,329,0.0,6.0,58,0.00,,,0.00,meteohub,2013-04-07 20:02:00,
2013-04-07 16:07:00,58.3,43.2,30.04,South,175,0.0,10.0,57,0.00,,,0.00,meteohub,2013-04-07 20:07:00,
2013-04-07 16:12:00,58.3,42.6,30.04,SSE,148,0.0,10.0,56,0.00,,,0.00,meteohub,2013-04-07 20:12:00,
2013-04-07 16:17:00,57.9,41.9,30.04,North,354,0.0,6.0,55,0.00,,,0.00,meteohub,2013-04-07 20:17:00,
2013-04-07 16:22:00,57.6,42.4,30.04,ESE,105,0.0,7.0,57,0.00,,,0.00,meteohub,2013-04-07 20:22:00,
2013-04-07 16:27:00,57.4,41.4,30.04,SSE,150,0.0,7.0,55,0.00,,,0.00,meteohub,2013-04-07 20:27:00,
2013-04-07 16:32:00,57.4,42.3,30.04,ESE,115,0.0,7.0,57,0.00,,,0.00,meteohub,2013-04-07 20:32:00,
2013-04-07 16:37:00,57.6,41.9,30.04,SE,146,1.0,5.0,56,0.00,,,0.00,meteohub,2013-04-07 20:37:00,
2013-04-07 16:42:00,58.1,42.1,30.04,SSE,156,0.0,3.0,55,0.00,,,0.00,meteohub,2013-04-07 20:42:00,
2013-04-07 16:47:00,58.6,43.5,30.04,North,5,0.0,8.0,57,0.00,,,0.00,meteohub,2013-04-07 20:47:00,
2013-04-07 16:52:00,58.8,42.3,30.04,North,352,0.0,8.0,54,0.00,,,0.00,meteohub,2013-04-07 20:52:00,
2013-04-07 16:57:00,57.9,41.4,30.04,NNW,327,0.0,8.0,54,0.00,,,0.00,meteohub,2013-04-07 20:57:00,
2013-04-07 17:02:00,58.3,43.5,30.04,SE,125,0.0,4.0,58,0.00,,,0.00,meteohub,2013-04-07 21:02:00,
2013-04-07 17:07:00,57.9,41.9,30.04,SSE,161,0.0,7.0,55,0.00,,,0.00,meteohub,2013-04-07 21:07:00,
2013-04-07 17:12:00,57.7,42.6,30.04,SE,142,0.0,7.0,57,0.00,,,0.00,meteohub,2013-04-07 21:12:00,
2013-04-07 17:17:00,56.8,42.3,30.04,SSE,151,0.0,7.0,58,0.00,,,0.00,meteohub,2013-04-07 21:17:00,
2013-04-07 17:23:00,56.5,42.3,30.04,SE,129,0.0,8.0,59,0.00,,,0.00,meteohub,2013-04-07 21:23:00,
2013-04-07 17:28:00,56.3,42.6,30.04,ESE,115,0.0,8.0,60,0.00,,,0.00,meteohub,2013-04-07 21:28:00,
2013-04-07 17:33:00,56.8,42.6,30.04,SSE,160,0.0,7.0,59,0.00,,,0.00,meteohub,2013-04-07 21:33:00,
2013-04-07 17:38:00,57.4,41.9,30.04,South,172,0.0,7.0,56,0.00,,,0.00,meteohub,2013-04-07 21:38:00,
2013-04-07 17:43:00,57.6,42.4,30.04,North,352,0.0,7.0,57,0.00,,,0.00,meteohub,2013-04-07 21:43:00,
2013-04-07 17:48:00,57.6,41.9,30.04,SE,144,0.0,11.0,56,0.00,,,0.00,meteohub,2013-04-07 21:48:00,
2013-04-07 17:53:00,57.6,42.4,30.04,SE,125,0.0,11.0,57,0.00,,,0.00,meteohub,2013-04-07 21:53:00,
2013-04-07 17:58:00,57.7,42.6,30.04,NE,42,0.0,9.0,57,0.00,,,0.00,meteohub,2013-04-07 21:58:00,
2013-04-07 18:03:00,57.9,42.3,30.04,NNW,341,0.0,9.0,56,0.00,,,0.00,meteohub,2013-04-07 22:03:00,
2013-04-07 18:08:00,57.9,42.3,30.04,South,180,0.0,8.0,56,0.00,,,0.00,meteohub,2013-04-07 22:08:00,
2013-04-07 18:13:00,57.2,42.1,30.04,SE,125,0.0,5.0,57,0.00,,,0.00,meteohub,2013-04-07 22:13:00,
2013-04-07 18:18:00,56.7,42.1,30.04,SSE,167,0.0,3.0,58,0.00,,,0.00,meteohub,2013-04-07 22:18:00,
2013-04-07 18:23:00,56.1,41.9,30.04,SSE,167,0.0,3.0,59,0.00,,,0.00,meteohub,2013-04-07 22:23:00,
2013-04-07 18:28:00,55.9,41.9,30.04,SE,135,0.0,3.0,59,0.00,,,0.00,meteohub,2013-04-07 22:28:00,
2013-04-07 18:33:00,55.8,41.7,30.05,ESE,106,0.0,3.0,59,0.00,,,0.00,meteohub,2013-04-07 22:33:00,
2013-04-07 18:38:00,55.8,41.7,30.05,ESE,120,0.0,1.0,59,0.00,,,0.00,meteohub,2013-04-07 22:38:00,
2013-04-07 18:44:00,55.8,41.7,30.05,SE,144,1.0,6.0,59,0.00,,,0.00,meteohub,2013-04-07 22:44:00,
2013-04-07 18:49:00,55.6,41.9,30.05,SE,146,0.0,6.0,60,0.00,,,0.00,meteohub,2013-04-07 22:49:00,
2013-04-07 18:54:00,55.4,41.7,30.05,East,99,0.0,7.0,60,0.00,,,0.00,meteohub,2013-04-07 22:54:00,
2013-04-07 18:59:00,55.2,41.5,30.05,SSE,168,3.0,7.0,60,0.00,,,0.00,meteohub,2013-04-07 22:59:00,
2013-04-07 19:04:00,55.0,41.9,30.04,NNE,18,0.0,6.0,61,0.00,,,0.00,meteohub,2013-04-07 23:04:00,
2013-04-07 19:09:00,54.7,41.5,30.04,SE,138,0.0,6.0,61,0.00,,,0.00,meteohub,2013-04-07 23:09:00,
2013-04-07 19:15:00,54.5,41.7,30.04,SE,144,1.0,6.0,62,0.00,,,0.00,meteohub,2013-04-07 23:15:00,
2013-04-07 19:20:00,54.3,41.5,30.04,SE,144,0.0,6.0,62,0.00,,,0.00,meteohub,2013-04-07 23:20:00,
2013-04-07 19:25:00,54.1,41.4,30.04,SSE,151,0.0,7.0,62,0.00,,,0.00,meteohub,2013-04-07 23:25:00,
2013-04-07 19:30:00,54.0,41.2,30.04,ESE,115,0.0,7.0,62,0.00,,,0.00,meteohub,2013-04-07 23:30:00,
2013-04-07 19:35:00,53.8,41.5,30.05,ESE,104,0.0,4.0,63,0.00,,,0.00,meteohub,2013-04-07 23:35:00,
2013-04-07 19:40:00,53.6,41.4,30.04,ESE,115,0.0,4.0,63,0.00,,,0.00,meteohub,2013-04-07 23:40:00,
2013-04-07 19:45:00,53.4,41.5,30.05,SSE,150,0.0,6.0,64,0.00,,,0.00,meteohub,2013-04-07 23:45:00,
2013-04-07 19:50:00,53.2,41.7,30.05,ENE,77,0.0,6.0,65,0.00,,,0.00,meteohub,2013-04-07 23:50:00,
2013-04-07 19:55:00,53.1,41.5,30.05,SE,140,0.0,3.0,65,0.00,,,0.00,meteohub,2013-04-07 23:55:00,
2013-04-07 20:00:00,53.1,41.5,30.05,SE,125,0.0,5.0,65,0.00,,,0.00,meteohub,2013-04-08 00:00:00,
2013-04-07 20:05:00,52.9,41.4,30.05,South,173,6.0,6.0,65,0.00,,,0.00,meteohub,2013-04-08 00:05:00,
2013-04-07 20:10:00,52.9,41.9,30.05,South,174,0.0,7.0,66,0.00,,,0.00,meteohub,2013-04-08 00:10:00,
2013-04-07 20:15:00,52.5,41.5,30.05,SE,125,0.0,7.0,66,0.00,,,0.00,meteohub,2013-04-08 00:15:00,
2013-04-07 20:20:00,52.5,41.5,30.06,East,94,0.0,7.0,66,0.00,,,0.00,meteohub,2013-04-08 00:20:00,
2013-04-07 20:25:00,52.3,41.7,30.06,ESE,115,0.0,2.0,67,0.00,,,0.00,meteohub,2013-04-08 00:25:00,
2013-04-07 20:30:00,52.2,41.5,30.06,ESE,115,0.0,1.0,67,0.00,,,0.00,meteohub,2013-04-08 00:30:00,
2013-04-07 20:35:00,52.0,41.4,30.06,ESE,115,0.0,0.0,67,0.00,,,0.00,meteohub,2013-04-08 00:35:00,
2013-04-07 20:40:00,51.8,41.5,30.06,ESE,115,0.0,0.0,68,0.00,,,0.00,meteohub,2013-04-08 00:40:00,
2013-04-07 20:45:00,51.6,41.4,30.06,ESE,115,0.0,0.0,68,0.00,,,0.00,meteohub,2013-04-08 00:45:00,
2013-04-07 20:50:00,51.6,41.4,30.06,SE,133,0.0,1.0,68,0.00,,,0.00,meteohub,2013-04-08 00:50:00,
2013-04-07 20:55:00,51.6,41.4,30.06,SE,133,0.0,1.0,68,0.00,,,0.00,meteohub,2013-04-08 00:55:00,
2013-04-07 21:00:00,51.6,41.4,30.06,SE,133,0.0,1.0,68,0.00,,,0.00,meteohub,2013-04-08 01:00:00,
2013-04-07 21:05:00,51.4,41.2,30.06,SE,133,0.0,0.0,68,0.00,,,0.00,meteohub,2013-04-08 01:05:00,
2013-04-07 21:10:00,51.4,41.5,30.06,SE,133,0.0,0.0,69,0.00,,,0.00,meteohub,2013-04-08 01:10:00,
2013-04-07 21:15:00,51.3,41.4,30.07,SE,133,0.0,0.0,69,0.00,,,0.00,meteohub,2013-04-08 01:15:00,
2013-04-07 21:20:00,51.1,41.2,30.07,SE,133,0.0,0.0,69,0.00,,,0.00,meteohub,2013-04-08 01:20:00,
2013-04-07 21:25:00,51.1,41.2,30.07,SE,133,0.0,0.0,69,0.00,,,0.00,meteohub,2013-04-08 01:25:00,
2013-04-07 21:30:00,50.9,41.5,30.07,SE,133,0.0,0.0,70,0.00,,,0.00,meteohub,2013-04-08 01:30:00,
2013-04-07 21:35:00,50.7,41.4,30.07,SE,133,0.0,0.0,70,0.00,,,0.00,meteohub,2013-04-08 01:35:00,
2013-04-07 21:40:00,50.7,41.4,30.06,SE,133,0.0,0.0,70,0.00,,,0.00,meteohub,2013-04-08 01:40:00,
2013-04-07 21:45:00,50.7,41.7,30.06,SE,133,0.0,0.0,71,0.00,,,0.00,meteohub,2013-04-08 01:45:00,
2013-04-07 21:50:00,50.5,41.5,30.06,SE,133,0.0,0.0,71,0.00,,,0.00,meteohub,2013-04-08 01:50:00,
2013-04-07 21:55:00,50.4,41.4,30.06,SE,133,0.0,0.0,71,0.00,,,0.00,meteohub,2013-04-08 01:55:00,
2013-04-07 22:00:00,50.4,41.7,30.06,SE,131,0.0,0.0,72,0.00,,,0.00,meteohub,2013-04-08 02:00:00,
2013-04-07 22:05:00,50.4,41.4,30.06,SE,131,0.0,0.0,71,0.00,,,0.00,meteohub,2013-04-08 02:05:00,
2013-04-07 22:10:00,50.4,41.7,30.06,SE,129,0.0,0.0,72,0.00,,,0.00,meteohub,2013-04-08 02:10:00,
2013-04-07 22:15:00,50.4,41.7,30.06,SE,129,0.0,1.0,72,0.00,,,0.00,meteohub,2013-04-08 02:15:00,
2013-04-07 22:21:00,50.4,41.7,30.07,SSE,150,0.0,1.0,72,0.00,,,0.00,meteohub,2013-04-08 02:21:00,
2013-04-07 22:26:00,50.4,41.4,30.07,SSE,150,0.0,1.0,71,0.00,,,0.00,meteohub,2013-04-08 02:26:00,
2013-04-07 22:31:00,50.4,41.4,30.07,East,101,0.0,1.0,71,0.00,,,0.00,meteohub,2013-04-08 02:31:00,
2013-04-07 22:36:00,50.4,41.4,30.07,East,83,0.0,0.0,71,0.00,,,0.00,meteohub,2013-04-08 02:36:00,
2013-04-07 22:41:00,50.5,41.5,30.06,East,84,0.0,0.0,71,0.00,,,0.00,meteohub,2013-04-08 02:41:00,
2013-04-07 22:47:00,50.7,41.7,30.06,ESE,106,0.0,0.0,71,0.00,,,0.00,meteohub,2013-04-08 02:47:00,
2013-04-07 22:52:00,50.7,41.7,30.06,ESE,106,0.0,0.0,71,0.00,,,0.00,meteohub,2013-04-08 02:52:00,
2013-04-07 22:57:00,50.9,41.9,30.06,ESE,106,0.0,0.0,71,0.00,,,0.00,meteohub,2013-04-08 02:57:00,
2013-04-07 23:02:00,51.1,42.1,30.06,ESE,106,0.0,0.0,71,0.00,,,0.00,meteohub,2013-04-08 03:02:00,
2013-04-07 23:07:00,51.1,42.1,30.06,SE,125,0.0,0.0,71,0.00,,,0.00,meteohub,2013-04-08 03:07:00,
2013-04-07 23:12:00,51.1,42.1,30.06,SE,125,0.0,0.0,71,0.00,,,0.00,meteohub,2013-04-08 03:12:00,
2013-04-07 23:17:00,51.1,42.1,30.05,SE,125,0.0,0.0,71,0.00,,,0.00,meteohub,2013-04-08 03:17:00,
2013-04-07 23:22:00,51.1,42.1,30.05,North,7,0.0,0.0,71,0.00,,,0.00,meteohub,2013-04-08 03:22:00,
2013-04-07 23:28:00,51.1,41.7,30.05,ENE,71,0.0,0.0,70,0.00,,,0.00,meteohub,2013-04-08 03:28:00,
2013-04-07 23:33:00,51.3,41.9,30.05,East,89,0.0,0.0,70,0.00,,,0.00,meteohub,2013-04-08 03:33:00,
2013-04-07 23:38:00,51.3,41.9,30.05,SE,125,0.0,0.0,70,0.00,,,0.00,meteohub,2013-04-08 03:38:00,
2013-04-07 23:43:00,51.3,41.9,30.05,SE,125,0.0,0.0,70,0.00,,,0.00,meteohub,2013-04-08 03:43:00,
2013-04-07 23:48:00,51.1,41.7,30.05,SE,125,0.0,0.0,70,0.00,,,0.00,meteohub,2013-04-08 03:48:00,
2013-04-07 23:53:00,51.1,42.1,30.05,SE,125,0.0,0.0,71,0.00,,,0.00,meteohub,2013-04-08 03:53:00,
2013-04-07 23:58:00,51.1,42.1,30.05,SE,145,0.0,0.0,71,0.00,,,0.00,meteohub,2013-04-08 03:58:00,